Regional Weather Roundup
Issued by NWS

Home | Current Version | Previous Version | Text Only | Print | Product List | Glossary Off
Versions: 1 2 3 4 5 6 7 8 9 10 11 12 13 14 15 16 17 18 19 20 21 22 23 24 25 26 27 28 29 30 31 32 33 34 35 36 37 38 39 40 41 42 43 44 45 46 47 48 49

000
ASUS45 KBOI 192110
RWRID
WEATHER ROUNDUP FOR IDAHO
NATIONAL WEATHER SERVICE BOISE ID
300 PM MDT FRI SEP 19 2014

NOTE: "FAIR" INDICATES FEW OR NO CLOUDS BELOW 12000 FEET
WITH NO SIGNIFICANT WEATHER AND/OR OBSTRUCTIONS TO VISIBILITY

IDZ012-014-192200-
SOUTHWEST IDAHO


CITY           SKY/WX    TMP DP  RH WIND       PRES   REMARKS
BOISE          SUNNY     77  47  34 NW12G17   30.05F
CALDWELL       SUNNY     77  48  36 CALM      30.06F
MOUNTAIN HOME  SUNNY     79  45  30 NW15      30.04F
$$

IDZ016-017-192200-
SOUTHCENTRAL IDAHO


CITY           SKY/WX    TMP DP  RH WIND       PRES   REMARKS
BURLEY         SUNNY     75  48  38 W12       30.07F
JEROME         SUNNY     75  45  34 SW13      30.09F
TWIN FALLS     SUNNY     77  44  30 NW12      30.09F
$$

IDZ019>023-192200-
SOUTHEAST IDAHO


CITY           SKY/WX    TMP DP  RH WIND       PRES   REMARKS
IDAHO FALLS    SUNNY     78  43  28 SW12G21   30.07F
POCATELLO      SUNNY     78  44  29 W16G22    30.09F
REXBURG        SUNNY     74  44  34 SW10      30.07F
$$

IDZ006-010-011-018-031-032-192200-
CENTRAL IDAHO MOUNTAINS


CITY           SKY/WX    TMP DP  RH WIND       PRES   REMARKS
MCCALL         SUNNY     70  41  34 VRB6      30.11F
HAILEY         SUNNY     77  41  27 S14G20    30.09F
STANLEY          N/A     72  34  24 NW8G17    30.17F
SALMON         SUNNY     73  45  35 W5        30.00F
CHALLIS        SUNNY     78  37  22 VRB5      30.05F
$$

IDZ002-004-006-007-026-192200-
NORTHERN IDAHO


CITY           SKY/WX    TMP DP  RH WIND       PRES   REMARKS
LEWISTON       SUNNY     79  47  32 NW5       30.03S
LOWELL           N/A     81  47  30 SE6       30.00F
COEUR D`ALENE  PTSUNNY   73  48  40 W13       30.04F
MULLAN PASS    CLOUDY    52  44  74 W7        30.18R
$$


USA.gov is the U.S. government's official web portal to all federal, state and local government web resources and services.